EW2690 Weather Reports


Display with metric or nautical units.
time (UTC)temp
F
wind
direction
speed
MPH
gust
MPH
rain 1hr
in
rain 24hr
in
rain mn
in
humidity
%
barometer
mb
20260831213032 81 225 2.0 5.0 0.00 0.15 0.04 77 1027.4
20260831210328 82 343 2.0 6.0 0.00 0.15 0.04 74 1027.5
20260831210046 82 324 2.0 4.0 0.00 0.15 0.04 73 1027.5
20260831203024 83 306 2.0 5.0 0.00 0.15 0.04 71 1027.4
20260831200328 83 250 3.0 7.0 0.00 0.15 0.04 76 1027.5
20260831200025 83 256 2.0 7.0 0.00 0.15 0.04 78 1027.5
20260831193023 81 272 2.0 3.0 0.00 0.15 0.04 78 1027.6
20260831190335 81 281 2.0 9.0 0.00 0.15 0.04 75 1027.8
20260831190009 81 303 3.0 8.0 0.00 0.15 0.04 75 1027.8
20260831183034 83 195 4.0 11.0 0.00 0.16 0.04 71 1028.0
20260831180329 83 294 4.0 9.0 0.00 0.16 0.04 70 1028.2
20260831180028 83 294 5.0 11.0 0.00 0.16 0.04 70 1028.3
20260831173033 85 275 6.0 13.0 0.00 0.16 0.04 70 1028.0
20260831170318 85 245 2.0 6.0 0.00 0.16 0.04 72 1027.9
20260831170021 85 310 1.0 5.0 0.00 0.16 0.04 75 1028.0
20260831163123 84 118 3.0 6.0 0.00 0.17 0.04 73 1028.0
20260831163041 84 118 3.0 6.0 0.00 0.17 0.04 73 1028.0
20260831160357 83 246 2.0 7.0 0.00 0.17 0.04 79 1028.0
20260831160032 82 188 2.0 6.0 0.00 0.17 0.04 78 1028.1
20260831153026 81 303 4.0 11.0 0.00 0.19 0.04 76 1028.1
20260831150404 80 208 2.0 8.0 0.00 0.19 0.04 79 1028.2
20260831150322 80 208 2.0 8.0 0.00 0.19 0.04 79 1028.2
20260831150020 80 235 2.0 8.0 0.00 0.19 0.04 80 1028.2
20260831143103 79 238 5.0 8.0 0.00 0.19 0.04 82 1028.1
20260831140356 77 241 4.0 8.0 0.00 0.19 0.04 86 1028.1
20260831133054 74 187 4.0 7.0 0.00 0.19 0.04 90 1028.2
20260831130334 73 180 2.0 6.0 0.00 0.19 0.04 92 1028.4
20260831130117 73 99 3.0 6.0 0.00 0.19 0.04 92 1028.3
20260831123036 72 170 2.0 8.0 0.00 0.19 0.04 94 1028.5
20260831120349 71 151 1.0 5.0 0.00 0.19 0.04 95 1028.3
20260831120024 71 152 0.0 5.0 0.00 0.19 0.04 95 1028.2
20260831113023 70 152 2.0 6.0 0.00 0.19 0.04 96 1028.3
20260831110348 69 175 3.0 4.0 0.00 0.19 0.04 96 1028.1
20260831110130 69 131 2.0 4.0 0.00 0.19 0.04 96 1028.1
20260831103114 69 161 2.0 4.0 0.00 0.19 0.04 96 1027.9
20260831100335 69 137 2.0 5.0 0.00 0.19 0.04 95 1027.9
20260831100047 69 162 3.0 5.0 0.00 0.19 0.04 95 1027.9
20260831093027 70 165 2.0 4.0 0.00 0.19 0.04 95 1028.0
20260831090354 69 163 1.0 5.0 0.00 0.19 0.04 96 1027.9
20260831090025 69 145 2.0 5.0 0.00 0.19 0.04 96 1027.9
20260831083115 69 119 3.0 7.0 0.00 0.19 0.04 96 1027.7
20260831080337 69 174 3.0 6.0 0.00 0.19 0.04 96 1027.8
20260831080013 69 165 4.0 8.0 0.00 0.19 0.04 96 1027.8
20260831073016 68 157 4.0 7.0 0.00 0.19 0.04 96 1027.8
20260831070401 68 155 2.0 6.0 0.00 0.19 0.04 97 1027.9
20260831070121 68 155 3.0 7.0 0.00 0.19 0.04 97 1028.0
20260831063129 68 163 3.0 7.0 0.00 0.19 0.04 98 1028.1
20260831060408 67 132 3.0 8.0 0.00 0.19 0.04 98 1028.2
20260831060050 67 156 2.0 8.0 0.00 0.19 0.04 98 1028.2
20260831053053 67 157 3.0 10.0 0.00 0.19 0.04 98 1028.3
20260831050358 67 163 3.0 12.0 0.03 0.19 0.04 98 1028.3
20260831050039 67 173 2.0 12.0 0.03 0.19 0.04 98 1028.3
20260831043041 68 162 5.0 9.0 0.09 0.19 0.04 99 1028.8
20260831040335 68 159 3.0 8.0 0.09 0.16 0.01 99 1029.4
20260831040114 68 192 3.0 8.0 0.09 0.16 0.01 98 1029.5
20260831033054 68 159 1.0 5.0 0.03 0.10 0.10 98 1030.0
20260831033012 68 159 1.0 5.0 0.03 0.10 0.10 98 1030.0
20260831030316 68 48 2.0 4.0 0.00 0.07 0.07 98 1030.0
20260831030036 68 125 0.0 5.0 0.00 0.07 0.07 98 1029.8
20260831023109 68 134 1.0 5.0 0.00 0.07 0.07 98 1029.5
20260831020323 68 155 2.0 5.0 0.00 0.07 0.07 98 1029.7
20260831020103 68 142 1.0 5.0 0.00 0.07 0.07 98 1029.7
20260831013010 69 125 2.0 4.0 0.01 0.07 0.07 98 1029.9
20260831010312 69 228 0.0 1.0 0.01 0.07 0.07 98 1030.2
20260831010010 69 228 0.0 1.0 0.01 0.07 0.07 98 1030.2
20260831003018 70 244 0.0 1.0 0.01 0.06 0.06 98 1030.5
20260831000410 70 228 0.0 1.0 0.02 0.06 0.06 97 1030.2
20260831000024 70 228 0.0 1.0 0.02 0.06 0.06 97 1030.2
20260830233106 71 227 1.0 3.0 0.01 0.05 0.05 95 1029.1
20260830230325 71 228 0.0 3.0 0.00 0.04 0.04 94 1029.1
20260830230016 71 228 0.0 3.0 0.00 0.04 0.04 94 1029.0